| time (UTC) | temp F | wind direction | speed knots | gust knots | rain 1hr in | rain 24hr in | rain mn in | humidity % | barometer mb |
| 20260503213046 | 57 | 236 | 4.3 | 12.2 | 0.00 | 0.00 | 0.00 | 38 | 1012.5 |
| 20260503211545 | 56 | 319 | 7.0 | 16.5 | 0.00 | 0.00 | 0.00 | 38 | 1012.3 |
| 20260503210043 | 57 | 232 | 5.2 | 15.6 | 0.00 | 0.00 | 0.00 | 39 | 1012.4 |
| 20260503204544 | 57 | 254 | 4.3 | 13.9 | 0.00 | 0.00 | 0.00 | 38 | 1012.4 |
| 20260503203042 | 57 | 282 | 3.5 | 10.4 | 0.00 | 0.00 | 0.00 | 39 | 1012.6 |
| 20260503201544 | 56 | 311 | 5.2 | 12.2 | 0.00 | 0.00 | 0.00 | 38 | 1012.8 |
| 20260503200047 | 57 | 332 | 5.2 | 13.9 | 0.00 | 0.00 | 0.00 | 39 | 1012.8 |
| 20260503194549 | 57 | 276 | 5.2 | 15.6 | 0.00 | 0.00 | 0.00 | 37 | 1012.9 |
| 20260503193046 | 57 | 286 | 4.3 | 12.2 | 0.00 | 0.00 | 0.00 | 38 | 1013.1 |
| 20260503191544 | 55 | 216 | 3.5 | 13.9 | 0.00 | 0.00 | 0.00 | 42 | 1013.2 |
| 20260503190050 | 56 | 249 | 4.3 | 12.2 | 0.00 | 0.00 | 0.00 | 38 | 1013.3 |
| 20260503184555 | 55 | 259 | 5.2 | 13.9 | 0.00 | 0.00 | 0.00 | 42 | 1013.4 |
| 20260503183044 | 55 | 331 | 4.3 | 16.5 | 0.00 | 0.00 | 0.00 | 42 | 1013.7 |
| 20260503181544 | 55 | 313 | 4.3 | 16.5 | 0.00 | 0.00 | 0.00 | 39 | 1013.7 |
| 20260503180053 | 54 | 0 | 7.0 | 15.6 | 0.00 | 0.00 | 0.00 | 41 | 1013.7 |
| 20260503174602 | 53 | 267 | 6.1 | 18.2 | 0.00 | 0.00 | 0.00 | 42 | 1013.9 |
| 20260503173048 | 53 | 302 | 5.2 | 13.9 | 0.00 | 0.00 | 0.00 | 42 | 1014.0 |
| 20260503171540 | 53 | 223 | 2.6 | 11.3 | 0.00 | 0.00 | 0.00 | 42 | 1014.0 |
| 20260503081549 | 37 | 286 | 2.6 | 7.8 | 0.00 | 0.00 | 0.00 | 70 | 1013.8 |
| 20260503071543 | 37 | 327 | 1.7 | 7.0 | 0.00 | 0.01 | 0.00 | 68 | 1013.8 |
| 20260503054545 | 39 | 0 | 0.9 | 7.0 | 0.00 | 0.03 | 0.00 | 65 | 1013.9 |
| 20260503053043 | 39 | 325 | 1.7 | 7.0 | 0.00 | 0.03 | 0.00 | 64 | 1013.9 |
| 20260503051543 | 40 | 0 | 0.9 | 4.3 | 0.00 | 0.03 | 0.00 | 64 | 1013.9 |
| 20260503050049 | 40 | 349 | 0.0 | 6.1 | 0.00 | 0.03 | 0.00 | 64 | 1014.0 |
| 20260503044552 | 40 | 321 | 0.0 | 5.2 | 0.00 | 0.08 | 0.00 | 63 | 1014.0 |
| 20260503043045 | 40 | 0 | 0.0 | 2.6 | 0.00 | 0.08 | 0.00 | 63 | 1014.0 |
| 20260503041545 | 40 | 0 | 0.0 | 2.6 | 0.00 | 0.08 | 0.00 | 63 | 1014.0 |
| 20260503040047 | 41 | 0 | 0.0 | 2.6 | 0.00 | 0.08 | 0.00 | 62 | 1014.1 |
| 20260503034603 | 41 | 0 | 0.0 | 7.0 | 0.00 | 0.13 | 0.08 | 62 | 1014.2 |
| 20260503033052 | 41 | 0 | 0.0 | 4.3 | 0.00 | 0.13 | 0.08 | 63 | 1014.3 |
| 20260503031552 | 41 | 324 | 1.7 | 5.2 | 0.00 | 0.13 | 0.08 | 63 | 1014.4 |
| 20260503030046 | 41 | 321 | 1.7 | 8.7 | 0.00 | 0.13 | 0.08 | 64 | 1014.4 |
| 20260503024550 | 41 | 317 | 1.7 | 7.0 | 0.00 | 0.14 | 0.08 | 65 | 1014.4 |
| 20260503023041 | 42 | 302 | 1.7 | 6.1 | 0.00 | 0.14 | 0.08 | 65 | 1014.4 |
| 20260503021542 | 42 | 323 | 0.0 | 3.5 | 0.00 | 0.14 | 0.08 | 67 | 1014.5 |
| 20260503020041 | 42 | 316 | 0.9 | 7.8 | 0.00 | 0.14 | 0.08 | 67 | 1014.4 |
| 20260503014555 | 42 | 304 | 0.0 | 6.1 | 0.00 | 0.14 | 0.08 | 70 | 1014.2 |
| 20260503013045 | 42 | 280 | 0.0 | 4.3 | 0.00 | 0.14 | 0.08 | 71 | 1014.2 |
| 20260503011546 | 42 | 0 | 1.7 | 6.1 | 0.00 | 0.14 | 0.08 | 71 | 1014.2 |
| 20260503010045 | 42 | 271 | 0.0 | 6.1 | 0.00 | 0.14 | 0.08 | 72 | 1014.0 |
| 20260503004542 | 42 | 0 | 1.7 | 8.7 | 0.00 | 0.17 | 0.08 | 72 | 1013.9 |
| 20260503003050 | 43 | 269 | 1.7 | 7.8 | 0.00 | 0.17 | 0.08 | 72 | 1013.7 |
| 20260503001605 | 43 | 259 | 1.7 | 7.0 | 0.00 | 0.17 | 0.08 | 71 | 1013.7 |
| 20260503000050 | 43 | 0 | 1.7 | 7.8 | 0.00 | 0.17 | 0.08 | 69 | 1013.7 |
| 20260502234548 | 43 | 265 | 1.7 | 7.0 | 0.00 | 0.17 | 0.08 | 70 | 1013.6 |
| 20260502233043 | 43 | 322 | 0.0 | 6.1 | 0.00 | 0.17 | 0.08 | 69 | 1013.5 |
| 20260502231541 | 43 | 288 | 1.7 | 5.2 | 0.00 | 0.17 | 0.08 | 68 | 1013.5 |
| 20260502230047 | 44 | 319 | 1.7 | 9.6 | 0.00 | 0.17 | 0.08 | 69 | 1013.4 |
| 20260502224546 | 44 | 252 | 2.6 | 8.7 | 0.00 | 0.17 | 0.08 | 70 | 1013.4 |
| 20260502223042 | 44 | 0 | 0.0 | 5.2 | 0.00 | 0.17 | 0.08 | 69 | 1013.3 |
| 20260502221546 | 44 | 319 | 0.0 | 4.3 | 0.00 | 0.17 | 0.08 | 69 | 1013.2 |
| 20260502220051 | 44 | 10 | 1.7 | 7.0 | 0.00 | 0.17 | 0.08 | 70 | 1013.2 |
| 20260502214548 | 44 | 326 | 0.9 | 4.3 | 0.00 | 0.19 | 0.08 | 72 | 1013.4 |